Location: *
(45.0500°N, 12.0500°E)
Time: 07:45:58
(UTC+00:00)

CARTOSAT-1 - Pass Details

Date: 09 April 2020
Orbit: 616 x 619 km, 97.8° (Epoch: 02 June)

Event Time Altitude Azimuth Distance (km) Brightness Sun altitude
Exits shadow 20:39:35 47° 12° (NNE) 827 4.3 -26.7°
Drops below altitude 10° 20:42:48 10° 352° (N) 1,995 6.8 -27.1°
Sets 20:45:00 0° 350° (N) 2,906 7.9 -27.4°
